TimeEDT,TemperatureF,Dew PointF,Humidity,Sea Level PressureIn,VisibilityMPH,Wind Direction,Wind SpeedMPH,Gust SpeedMPH,PrecipitationIn,Events,Conditions,WindDirDegrees,DateUTC
12:54 AM,64.9,64.9,100,29.73,-9999.0,North,-9999.0,-,N/A,,Unknown,0,2013-06-26 04:54:00
1:54 AM,64.9,64.9,100,29.72,-9999.0,North,-9999.0,-,N/A,,Unknown,0,2013-06-26 05:54:00
2:54 AM,66.0,64.9,96,29.72,-9999.0,North,-9999.0,-,N/A,,Unknown,0,2013-06-26 06:54:00
3:54 AM,64.9,64.9,100,29.72,-9999.0,North,-9999.0,-,N/A,,Unknown,0,2013-06-26 07:54:00
4:54 AM,66.0,64.9,96,29.74,-9999.0,North,-9999.0,-,N/A,,Unknown,0,2013-06-26 08:54:00
5:54 AM,66.0,64.9,96,29.74,-9999.0,North,-9999.0,-,N/A,,Unknown,0,2013-06-26 09:54:00
6:54 AM,66.0,64.0,93,29.74,-9999.0,North,-9999.0,-,N/A,,Unknown,0,2013-06-26 10:54:00
7:54 AM,66.9,64.9,93,29.75,-9999.0,North,-9999.0,-,N/A,,Unknown,0,2013-06-26 11:54:00
8:54 AM,66.9,64.9,93,29.77,-9999.0,North,-9999.0,-,N/A,,Unknown,0,2013-06-26 12:54:00
9:54 AM,68.0,66.0,93,29.76,-9999.0,North,-9999.0,-,0.03,,Unknown,0,2013-06-26 13:54:00
10:54 AM,69.1,66.0,90,29.76,-9999.0,North,-9999.0,-,N/A,,Unknown,0,2013-06-26 14:54:00
11:54 AM,69.1,66.0,90,29.77,-9999.0,North,-9999.0,-,N/A,,Unknown,0,2013-06-26 15:54:00
12:54 PM,69.1,66.9,93,29.75,-9999.0,North,-9999.0,-,0.03,,Unknown,0,2013-06-26 16:54:00
1:54 PM,70.0,68.0,93,29.77,-9999.0,North,-9999.0,-,0.01,,Unknown,0,2013-06-26 17:54:00
2:54 PM,69.1,68.0,96,29.76,-9999.0,North,-9999.0,-,0.04,,Unknown,0,2013-06-26 18:54:00
3:54 PM,70.0,66.9,90,29.74,-9999.0,North,-9999.0,-,N/A,,Unknown,0,2013-06-26 19:54:00
4:54 PM,73.0,66.0,79,29.75,-9999.0,North,-9999.0,-,N/A,,Unknown,0,2013-06-26 20:54:00
5:54 PM,73.9,61.0,64,29.75,-9999.0,North,-9999.0,-,N/A,,Unknown,0,2013-06-26 21:54:00
6:54 PM,73.0,64.0,73,29.76,-9999.0,North,-9999.0,-,N/A,,Unknown,0,2013-06-26 22:54:00
7:54 PM,72.0,64.9,78,29.76,-9999.0,North,-9999.0,-,N/A,,Unknown,0,2013-06-26 23:54:00
8:54 PM,68.0,64.9,90,29.77,-9999.0,North,-9999.0,-,N/A,,Unknown,0,2013-06-27 00:54:00
9:54 PM,66.9,64.9,93,29.80,-9999.0,North,-9999.0,-,N/A,,Unknown,0,2013-06-27 01:54:00
10:54 PM,66.0,64.9,96,29.77,-9999.0,North,-9999.0,-,N/A,,Unknown,0,2013-06-27 02:54:00
11:54 PM,64.9,64.0,97,29.78,-9999.0,North,-9999.0,-,N/A,,Unknown,0,2013-06-27 03:54:00